AirNav   Air Wisconsin Up To $57,000 Bonus
 
 1161 users online  

S70 Othello Municipal Airport
Othello, Washington, USA

GOING TO OTHELLO?


FAA INFORMATION EFFECTIVE 14 JULY 2022

Location

FAA Identifier: S70
Lat/Long: 46-47-39.2000N 119-04-48.4000W
46-47.653333N 119-04.806667W
46.7942222,-119.0801111
(estimated)
Elevation: 1148.8 ft. / 350.2 m (surveyed)
Variation: 19E (1985)
From city: 4 miles SE of OTHELLO, WA
Time zone: UTC -7 (UTC -8 during Standard Time)
Zip code: 99344

Airport Operations

Airport use: Open to the public
Activation date: 02/1962
Control tower: no
ARTCC: SEATTLE CENTER
FSS: SEATTLE FLIGHT SERVICE STATION
NOTAMs facility: SEA (NOTAM-D service available)
Attendance: UNATNDD
Wind indicator: lighted
Segmented circle: yes
Lights: ACTVT REIL RWY 07 & RWY 25; PAPI RWY 25; MIRL RWY 07/25 - CTAF.
Beacon: white-green (lighted land airport)
Operates sunset to sunrise.

Airport Communications

CTAF: 122.9

Nearby radio navigation aids

VOR radial/distance  VOR name  Freq  Var
MWHr141/26.8MOSES LAKE VOR/DME115.0018E
PSCr348/31.5PASCO VOR/DME113.7515E
EPHr137/37.7EPHRATA VORTAC112.6021E

Airport Services

Fuel available: 100LL
100LL:FUEL AVBL 24 HRS.
Parking: tiedowns
Airframe service: NONE
Powerplant service: NONE
Bottled oxygen: NONE
Bulk oxygen: NONE

Runway Information

Runway 7/25

Dimensions: 4000 x 75 ft. / 1219 x 23 m
Surface: asphalt, in excellent condition
Weight bearing capacity: 
Single wheel: 16.0
Runway edge lights: medium intensity
RUNWAY 7  RUNWAY 25
Latitude: 46-47.660377N46-47.645680N
Longitude: 119-05.285473W119-04.327593W
Elevation: 1137.6 ft.1148.8 ft.
Traffic pattern: leftleft
Runway heading: 072 magnetic, 091 true252 magnetic, 271 true
Markings: basic, in good conditionbasic, in good condition
Visual slope indicator: 2-light PAPI on left (3.00 degrees glide path)
Runway end identifier lights: yesyes
Touchdown point: yes, no lightsyes, no lights
Obstructions: 15 ft. road, 691 ft. from runway, 32:1 slope to clear15 ft. road, 687 ft. from runway, 32:1 slope to clear

Airport Ownership and Management from official FAA records

Ownership: Publicly-owned
Owner: PORT OF OTHELLO
705 EAST HEMLOCK
OTHELLO, WA 99344
Phone 509-488-2544
Manager: CHRIS FAIX
705 EAST HEMLOCK
OTHELLO, WA 99344
Phone (509) 761-1004

Airport Operational Statistics

Aircraft based on the field: 21
Single engine airplanes: 19
Helicopters: 2
    
Aircraft operations: avg 94/day *
83% local general aviation
17% transient general aviation
* for 12-month period ending 31 December 2018

Additional Remarks

IRRIGATION PIVOT OCCASIONALLY OPRS ACROSS EXTENDED CTRLN OF RY 25, APPROXIMATELY 750 FT BYD RY END, DURING GROWING SEASON.
FOR CD CTC GRANT COUNTY APCH AT 509-762-2842, WHEN APCH CLSD CTC SEATTLE ARTCC AT 253-351-3694.

Instrument Procedures

There are no published instrument procedures at S70.

Some nearby airports with instrument procedures:

KMWH - Grant County International Airport (27 nm N)
KRLD - Richland Airport (31 nm S)
KPSC - Tri-Cities Airport (32 nm S)
KEPH - Ephrata Municipal Airport (36 nm NW)
KALW - Walla Walla Regional Airport (53 nm SE)
 
Loc | Ops | Rwys | IFR | FBO | Links
Com | Nav | Svcs | Stats | Notes
Area around S70 (Othello Municipal Airport)
 
Road maps at: MapQuest Bing Google
 
Aerial photo
WARNING: Photo may not be current or correct
Aerial photo of S70 (Othello Municipal Airport)
Taken early August 2006

Do you have a better or more recent aerial photo of Othello Municipal Airport that you would like to share? If so, please send us your photo.

 
Sectional chart

 
Airport distance calculator
Flying to Othello Municipal Airport? Find the distance to fly.

From to S70

Sunrise and sunset
Times for 10-Aug-2022
 Local
(UTC-7)
 Zulu
(UTC)
Morning civil twilight05:1512:15
Sunrise05:4912:49
Sunset20:1503:15
Evening civil twilight20:4803:48

Current date and time
Zulu (UTC)  10-Aug-2022 23:47:43
Local (UTC-7)  10-Aug-2022 16:47:43
 
METAR
KMWH 
26nm N 
102252Z 19005G14KT 10SM CLR 34/14 A2992 RMK AO2 SLP120 T03440139
KRLD 
31nm S 
102335Z AUTO 12004KT 10SM CLR 39/10 A2985 RMK AO2 T03860104
KPSC 
32nm S 
102253Z 10SM CLR 38/12 A2987 RMK AO2 SLP109 T03780117
KEPH 
35nm NW 
102253Z AUTO 18010KT 10SM CLR 35/12 A2991 RMK AO2 SLP116 T03500122
K1S5 
46nm SW 
102335Z AUTO 30006KT 10SM CLR 35/14 A2987 RMK AO2 T03530144
TAF
KMWH 
26nm N 
101740Z 1018/1118 17006KT P6SM SCT120 SCT250 FM110300 20008KT P6SM SCT100 FM111200 VRB03KT P6SM SCT200
KPSC 
32nm S 
102228Z 1022/1118 26012KT P6SM SCT150 TEMPO 1022/1023 VRB40KT 1SM TSRA BKN080CB FM110300 21007KT P6SM FEW150 FM111200 18005KT P6SM SCT250
NOTAMs
Click for the latest NOTAMs
NOTAMs are issued by the DoD/FAA and will open in a separate window not controlled by AirNav.

 

 
 

FBO, Fuel Providers, and Aircraft Ground Support

  
 Business Name 
 
 Contact 
 
 Services / Description 
 
Fuel Prices
 
Comments
  
Port of Othello 509-488-2544
no information available

If you are affiliated with Port of Othello and would like to show here your services, contact info, web link, logo, and more, click here
100LL
SS $6.75 
 Updated 03-Aug-2022
 
   write
SS=Self service
Update Fuel Prices
 

Would you like to see your business listed on this page?

 If your business provides an interesting product or service to pilots, flight crews, aircraft, or users of the Othello Municipal Airport, you should consider listing it here.  To start the listing process, click on the button below
 
Add a business
 

Other Pages about Othello Municipal Airport

Update a link
 
Copyright © AirNav, LLC. All rights reserved. Privacy Policy  Contact